Weather History for 13615 - October, 2013

Change the Weather History Date:

Monday, October 14, 2013

  Actual Average Record
Temperature  
Mean Temperature 70 °F -  
Max Temperature 77 °F 66 °F - ()
Min Temperature 62 °F 48 °F - ()
Cooling Degree Days 4    
Growing Degree Days 20 (Base 50)    
Moisture  
Dew Point 63 °F    
Average Humidity 82    
Maximum Humidity 94    
Minimum Humidity 57    
Precipitation  
Precipitation 0.00 in -13.12 in - ()
Sea Level Pressure  
Sea Level Pressure 30.13 in    
Wind  
Wind Speed 2 mph ()    
Max Wind Speed 8 mph    
Max Gust Speed -    
Visibility 4.4 miles    
Events Fog    
T = Trace of Precipitation, MM = Missing Value Source: Averaged Metar Reports

Daily Weather History Graph

Daily Weather History Graph

Search for Another Location

Airport or City:

Trip Planner

Search our weather history database for the weather conditions in past years. The results will help you decide how hot, cold, wet, or windy it might be!

Date:

Astronomy

Oct. 14, 2013 Rise Set
Actual Time 6:51 AM CEST 6:01 PM CEST
Civil Twilight 6:23 AM CEST 6:29 PM CEST
Nautical Twilight 5:51 AM CEST 7:01 PM CEST
Astronomical Twilight 5:19 AM CEST 7:33 PM CEST
Moon 3:22 PM CEST (10/14) 1:44 AM CEST (10/14)
Length of Visible Light 12h 05m
Length of Day
11h 09m
Waxing Gibbous, 77% of the Moon is Illuminated
Oct 14
Waxing Gibbous
Oct 19
Full
Oct 27
Last Quarter
Nov 3
New
Nov 10
First Quarter

Hourly Weather History & Observations

Time (CEST) Temp. Dew Point Humidity Pressure Visibility Wind Dir Wind Speed Gust Speed Precip Events Conditions
12:20 AM 64.4 °F 62.6 °F 94% 30.15 in 1.9 mi NNE 1.2 mph - N/A   Partly Cloudy
12:50 AM 64.4 °F 60.8 °F 88% 30.15 in 1.9 mi Variable 2.3 mph - N/A   Partly Cloudy
1:20 AM 62.6 °F 60.8 °F 94% 30.15 in 0.6 mi SSE 2.3 mph - N/A Fog Patches of Fog
1:50 AM 62.6 °F 60.8 °F 94% 30.15 in 0.1 mi Calm Calm - N/A Fog Patches of Fog
2:20 AM 62.6 °F 60.8 °F 94% 30.15 in 0.2 mi South 2.3 mph - N/A Fog Patches of Fog
2:50 AM 64.4 °F 62.6 °F 94% 30.12 in 1.9 mi SSW 3.5 mph - N/A   Mostly Cloudy
3:20 AM 64.4 °F 62.6 °F 94% 30.12 in 1.2 mi SSE 3.5 mph - N/A   Mist
3:50 AM 64.4 °F 62.6 °F 94% 30.12 in 0.1 mi SE 3.5 mph - N/A Fog Fog
4:20 AM 64.4 °F 62.6 °F 94% 30.12 in 0.1 mi Variable 2.3 mph - N/A Fog Fog
4:50 AM 64.4 °F 62.6 °F 94% 30.12 in 2.5 mi Variable 2.3 mph - N/A   Mist
5:00 AM 64 °F 62 °F 91% 30.13 in 3 mi Calm Calm - -   Overcast
5:20 AM 64.4 °F 62.6 °F 94% 30.12 in 1.2 mi Calm Calm - N/A   Mist
5:50 AM 64.4 °F 62.6 °F 94% 30.12 in 0.6 mi WSW 3.5 mph - N/A   Mist
6:20 AM 62.6 °F 60.8 °F 94% 30.12 in 0.6 mi SE 4.6 mph - N/A Fog Patches of Fog
6:50 AM 62.6 °F 60.8 °F 94% 30.12 in 1.2 mi East 2.3 mph - N/A   Overcast
7:20 AM 62.6 °F 60.8 °F 94% 30.12 in 3.7 mi Variable 2.3 mph - N/A   Mostly Cloudy
7:50 AM 62.6 °F 60.8 °F 94% 30.12 in 3.7 mi South 3.5 mph - N/A   Scattered Clouds
8:20 AM 66.2 °F 64.4 °F 94% 30.12 in 3.7 mi South 4.6 mph - N/A   Scattered Clouds
8:50 AM 68.0 °F 64.4 °F 88% 30.15 in 3.1 mi South 3.5 mph - N/A   Scattered Clouds
9:20 AM 69.8 °F 66.2 °F 88% 30.15 in 3.1 mi SSE 3.5 mph - N/A   Scattered Clouds
9:50 AM 71.6 °F 64.4 °F 78% 30.15 in 5.0 mi ESE 3.5 mph - N/A   Partly Cloudy
10:20 AM 73.4 °F 64.4 °F 73% 30.15 in 6.2 mi Variable 2.3 mph - N/A   Partly Cloudy
10:50 AM 73.4 °F 62.6 °F 69% 30.15 in 6.2 mi Calm Calm - N/A   Partly Cloudy
11:00 AM 72 °F 63 °F 65% 30.17 in 11 mi 2.2 mph - -  
11:20 AM 73.4 °F 62.6 °F 69% 30.15 in 6.2 mi Calm Calm - N/A   Scattered Clouds
11:50 AM 75.2 °F 64.4 °F 69% 30.15 in 6.2 mi Calm Calm - N/A   Scattered Clouds
12:20 PM 73.4 °F 62.6 °F 69% 30.15 in 6.2 mi Variable 2.3 mph - N/A   Scattered Clouds
12:50 PM 75.2 °F 62.6 °F 65% 30.15 in 6.2 mi North 3.5 mph - N/A   Scattered Clouds
1:20 PM 75.2 °F 62.6 °F 65% 30.12 in 6.2 mi NNW 3.5 mph - N/A   Mostly Cloudy
1:50 PM 77.0 °F 60.8 °F 57% 30.12 in 6.2 mi Variable 2.3 mph - N/A   Mostly Cloudy
2:20 PM 77.0 °F 62.6 °F 61% 30.12 in 6.2 mi NW 3.5 mph - N/A   Scattered Clouds
2:50 PM 75.2 °F 62.6 °F 65% 30.12 in 6.2 mi NNW 8.1 mph - N/A   Scattered Clouds
3:20 PM 75.2 °F 62.6 °F 65% 30.12 in 6.2 mi North 8.1 mph - N/A   Scattered Clouds
3:50 PM 75.2 °F 62.6 °F 65% 30.09 in 6.2 mi NNW 4.6 mph - N/A   Scattered Clouds
4:20 PM 75.2 °F 60.8 °F 61% 30.09 in 6.2 mi NW 5.8 mph - N/A   Scattered Clouds
4:50 PM 73.4 °F 60.8 °F 65% 30.09 in 6.2 mi North 3.5 mph - N/A   Partly Cloudy
5:00 PM 74 °F 62 °F 57% 30.10 in 17 mi North 4.5 mph - -  
5:20 PM 73.4 °F 62.6 °F 69% 30.09 in 6.2 mi NNW 4.6 mph - N/A   Partly Cloudy
5:50 PM 71.6 °F 62.6 °F 73% 30.09 in 6.2 mi NW 5.8 mph - N/A   Partly Cloudy
6:20 PM 69.8 °F 62.6 °F 78% 30.12 in 6.2 mi NNW 4.6 mph - N/A   Scattered Clouds
6:50 PM 68.0 °F 64.4 °F 88% 30.12 in 6.2 mi North 4.6 mph - N/A   Scattered Clouds
7:20 PM 68.0 °F 64.4 °F 88% 30.12 in 6.2 mi North 4.6 mph - N/A   Scattered Clouds
7:50 PM 68.0 °F 64.4 °F 88% 30.12 in 5.6 mi WNW 2.3 mph - N/A   Mostly Cloudy
8:20 PM 68.0 °F 64.4 °F 88% 30.15 in 6.2 mi West 3.5 mph - N/A   Mostly Cloudy
8:50 PM 66.2 °F 64.4 °F 94% 30.15 in 6.2 mi West 2.3 mph - N/A   Scattered Clouds
9:20 PM 64.4 °F 62.6 °F 94% 30.15 in 3.7 mi South 2.3 mph - N/A   Scattered Clouds
9:50 PM 66.2 °F 62.6 °F 88% 30.15 in 5.0 mi SSE 2.3 mph - N/A   Scattered Clouds
10:20 PM 64.4 °F 62.6 °F 94% 30.15 in 5.0 mi SE 3.5 mph - N/A   Scattered Clouds
10:50 PM 66.2 °F 62.6 °F 88% 30.15 in 3.7 mi Variable 2.3 mph - N/A   Partly Cloudy
11:20 PM 64.4 °F 60.8 °F 88% 30.15 in 1.4 mi Calm Calm - N/A   Scattered Clouds
11:50 PM 62.6 °F 60.8 °F 94% 30.12 in 0.6 mi Calm Calm - N/A Fog Patches of Fog